Location: Ahausen
(50.4985°N, 8.2722°E)
Time: 21:05:13
(UTC+00:00)

JY1SAT - Pass Details

Date: 06 July 2022
Orbit: 563 x 586 km, 97.6° (Epoch: 13 August)

Event Time Altitude Azimuth Distance (km) Brightness Sun altitude
Exits shadow 20:33:02 - 158° (SSE) 2,119 ? -6.9°
Reaches altitude 10° 20:33:33 10° 157° (SSE) 1,911 ? -7.0°
Maximum altitude 20:37:40 72° 74° (ENE) 624 ? -7.4°
Drops below altitude 10° 20:41:50 10° 350° (N) 1,920 ? -7.8°
Sets 20:44:00 0° 349° (NNW) 2,822 ? -8.0°
